GW4712 Weather Reports


Display with metric or nautical units.
time (UTC)temp
F
wind
direction
speed
MPH
gust
MPH
rain 1hr
in
rain 24hr
in
rain mn
in
humidity
%
barometer
mb
20260905020116 70 12 0.0 0.0 0.00 0.75 0.75 99 1015.8
20260905015614 70 12 0.0 0.0 0.00 0.75 0.75 99 1015.9
20260905015109 71 12 0.0 0.0 0.00 0.75 0.75 99 1015.8
20260905014603 71 12 0.0 0.0 0.00 0.75 0.75 99 1015.9
20260905014059 71 12 0.0 0.0 0.00 0.75 0.75 99 1015.6
20260905013555 71 12 0.0 0.0 0.00 0.75 0.75 99 1015.7
20260905013051 71 12 0.0 0.0 0.00 0.75 0.75 99 1015.8
20260905012550 71 12 0.0 0.0 0.00 0.75 0.75 99 1015.7
20260905012047 71 12 0.0 0.0 0.00 0.75 0.75 99 1015.7
20260905011543 71 12 0.0 0.0 0.00 0.75 0.75 99 1015.7
20260905011039 71 12 0.0 0.0 0.00 0.75 0.75 99 1015.6
20260905010539 71 12 0.0 0.0 0.00 0.75 0.75 99 1015.5
20260905010036 71 12 0.0 0.0 0.00 0.75 0.75 99 1015.5
20260905005536 71 12 0.0 0.0 0.00 0.75 0.75 99 1015.2
20260905005031 71 12 0.0 0.0 0.00 0.75 0.75 99 1015.2
20260905004526 71 12 0.0 0.0 0.00 0.75 0.75 99 1015.2
20260905004021 71 12 0.0 0.0 0.00 0.75 0.75 99 1015.1
20260905003517 72 12 0.0 0.0 0.00 0.75 0.75 99 1015.1
20260905003013 72 12 0.0 0.0 0.00 0.75 0.75 99 1014.9
20260905002508 72 12 0.0 0.0 0.00 0.75 0.75 99 1014.8
20260905002008 72 12 0.0 0.0 0.00 0.75 0.75 99 1015.1
20260905001502 72 12 0.0 0.0 0.00 0.75 0.75 99 1015.3
20260905000956 72 12 0.0 0.0 0.00 0.75 0.75 98 1015.3
20260905000454 73 12 0.0 0.0 0.00 0.75 0.75 98 1014.8
20260904235948 73 12 0.0 0.0 0.00 0.75 0.75 98 1014.8
20260904235444 73 13 0.0 0.0 0.00 0.75 0.75 98 1015.2
20260904234943 73 13 0.0 0.0 0.00 0.75 0.75 98 1014.9
20260904234443 73 13 0.0 0.0 0.00 0.75 0.75 98 1014.8
20260904233939 73 13 0.0 0.0 0.00 0.75 0.75 97 1014.9
20260904233434 74 12 0.0 0.0 0.00 0.75 0.75 96 1014.9
20260904232931 74 12 0.0 0.0 0.00 0.75 0.75 95 1015.1
20260904232427 74 12 0.0 0.0 0.00 0.75 0.75 94 1015.1
20260904231923 74 12 0.0 0.0 0.00 0.75 0.75 94 1014.8
20260904231424 74 192 0.0 0.0 0.00 0.75 0.75 94 1014.8
20260904230919 74 192 0.0 0.0 0.00 0.75 0.75 94 1015.1
20260904230417 74 197 0.0 0.0 0.00 0.75 0.75 94 1014.8
20260904225913 74 222 0.0 0.0 0.00 0.75 0.75 93 1015.3
20260904225411 75 222 0.0 0.0 0.00 0.75 0.75 94 1015.4
20260904224910 75 222 0.0 0.0 0.00 0.75 0.75 93 1015.2
20260904224406 75 222 0.0 0.0 0.00 0.75 0.75 91 1015.4
20260904223901 75 222 0.0 0.0 0.00 0.75 0.75 91 1015.4
20260904223400 76 222 0.0 0.0 0.00 0.75 0.75 91 1015.6
20260904222856 76 222 0.0 0.0 0.00 0.75 0.75 90 1015.6
20260904222351 76 109 0.0 0.0 0.00 0.75 0.75 89 1015.9
20260904221850 76 150 0.0 0.0 0.00 0.75 0.75 89 1015.9
20260904221345 77 112 0.0 0.0 0.00 0.75 0.75 88 1016.1
20260904220841 77 144 0.0 0.0 0.00 0.75 0.75 89 1016.0
20260904220339 76 305 0.0 0.0 0.00 0.75 0.75 90 1016.3
20260904215835 76 207 0.0 0.0 0.00 0.75 0.75 89 1016.5
20260904215330 77 268 0.0 0.0 0.00 0.75 0.75 89 1016.3
20260904214826 76 244 0.0 0.0 0.00 0.75 0.75 91 1016.4
20260904214322 76 121 0.0 0.0 0.00 0.75 0.75 90 1016.5
20260904213820 75 144 0.0 0.0 0.00 0.75 0.75 91 1016.5
20260904213315 75 224 0.0 0.0 0.00 0.75 0.75 92 1016.5
20260904212812 74 342 0.0 0.0 0.00 0.75 0.75 93 1016.4
20260904212311 74 139 0.0 1.0 0.00 0.75 0.75 92 1016.4
20260904211807 73 168 0.0 0.0 0.00 0.75 0.75 93 1016.5
20260904211301 74 226 0.0 0.0 0.00 0.75 0.75 94 1016.5
20260904210756 74 85 0.0 0.0 0.00 0.75 0.75 95 1016.7
20260904210250 74 317 0.0 0.0 0.00 0.75 0.75 96 1016.7
20260904205746 73 233 0.0 0.0 0.00 0.75 0.75 96 1016.4
20260904205242 73 155 0.0 0.0 0.00 0.75 0.75 96 1016.4
20260904204739 73 187 0.0 0.0 0.00 0.75 0.75 97 1016.6
20260904204234 72 198 0.0 0.0 0.00 0.75 0.75 97 1016.2
20260904203730 72 156 0.0 0.0 0.00 0.75 0.75 98 1016.2
20260904203226 71 71 0.0 0.0 0.00 0.75 0.75 99 1016.5
20260904202722 71 36 0.0 0.0 0.00 0.75 0.75 99 1016.4
20260904202218 71 177 0.0 0.0 0.00 0.75 0.75 99 1016.7
20260904201713 71 177 0.0 0.0 0.00 0.75 0.75 99 1017.1
20260904201208 71 60 0.0 0.0 0.00 0.75 0.75 99 1017.1
20260904200702 71 61 0.0 0.0 0.00 0.75 0.75 99 1016.6
20260904200152 71 61 0.0 0.0 0.00 0.75 0.75 99 1016.8
20260904195650 70 61 0.0 0.0 0.00 0.75 0.75 99 1016.7
20260904195149 70 61 0.0 0.0 0.00 0.75 0.75 99 1016.6
20260904194643 70 61 0.0 0.0 0.00 0.75 0.75 99 1016.6
20260904194138 70 322 0.0 0.0 0.00 0.75 0.75 99 1016.6
20260904193632 70 294 0.0 0.0 0.00 0.75 0.75 99 1016.8
20260904193129 70 294 0.0 0.0 0.00 0.75 0.75 99 1017.0
20260904192629 70 294 0.0 0.0 0.00 0.75 0.75 99 1017.3
20260904192124 70 294 0.0 0.0 0.00 0.75 0.75 99 1017.4
20260904191621 70 295 0.0 0.0 0.00 0.75 0.75 99 1017.6
20260904191118 70 236 0.0 0.0 0.00 0.75 0.75 99 1017.7
20260904190613 70 261 0.0 0.0 0.00 0.75 0.75 99 1018.1
20260904190104 70 84 0.0 0.0 0.12 0.75 0.75 98 1018.0
20260904185600 70 237 0.0 1.0 2.34 0.75 0.75 97 1017.9
20260904185054 70 251 0.0 1.0 4.39 0.73 0.73 96 1018.8
20260904184548 72 310 0.0 6.0 2.17 0.36 0.36 95 1019.3
20260904184044 85 35 8.0 25.0 0.00 0.00 0.00 79 1017.2
20260904183544 86 271 0.0 0.0 0.00 0.00 0.00 80 1015.5
20260904183039 87 271 0.0 0.0 0.00 0.00 0.00 78 1014.9
20260904182534 88 271 0.0 0.0 0.00 0.00 0.00 74 1015.3
20260904182029 89 302 0.0 0.0 0.00 0.00 0.00 72 1014.9
20260904181525 89 307 0.0 0.0 0.00 0.00 0.00 69 1014.8
20260904181025 90 267 0.0 0.0 0.00 0.00 0.00 67 1014.8
20260904180519 90 249 0.0 0.0 0.00 0.00 0.00 68 1015.2
20260904180014 90 251 0.0 0.0 0.00 0.00 0.00 67 1015.3
20260904175508 91 249 0.0 0.0 0.00 0.00 0.00 69 1015.5
20260904175001 90 305 0.0 0.0 0.00 0.00 0.00 70 1015.5
20260904174457 89 250 0.0 0.0 0.00 0.00 0.00 69 1015.8
20260904173954 90 300 0.0 0.0 0.00 0.00 0.00 69 1016.0
20260904173453 90 246 0.0 0.0 0.00 0.00 0.00 68 1016.1
20260904172948 91 239 0.0 0.0 0.00 0.00 0.00 67 1016.1
20260904172443 91 246 0.0 1.0 0.00 0.00 0.00 67 1016.4
20260904171938 90 238 0.0 0.0 0.00 0.00 0.00 71 1016.4
20260904171434 91 307 0.0 0.0 0.00 0.00 0.00 70 1016.7
20260904170930 90 296 0.0 0.0 0.00 0.00 0.00 69 1016.7
20260904170424 90 237 0.0 0.0 0.00 0.00 0.00 69 1016.8
20260904165920 90 218 0.0 1.0 0.00 0.00 0.00 69 1016.7
20260904165419 90 265 0.0 0.0 0.00 0.00 0.00 70 1016.8
20260904164913 90 175 0.0 0.0 0.00 0.00 0.00 70 1016.7
20260904164413 90 340 0.0 0.0 0.00 0.00 0.00 69 1016.7
20260904163909 89 7 0.0 0.0 0.00 0.00 0.00 69 1017.1
20260904163409 89 250 0.0 0.0 0.00 0.00 0.00 69 1016.8
20260904162908 89 278 0.0 0.0 0.00 0.00 0.00 71 1017.0
20260904162404 89 311 0.0 0.0 0.00 0.00 0.00 72 1017.0
20260904161859 89 275 0.0 0.0 0.00 0.00 0.00 74 1016.9
20260904161354 89 286 0.0 0.0 0.00 0.00 0.00 70 1017.0
20260904160850 88 284 0.0 0.0 0.00 0.00 0.00 74 1017.2
20260904160344 88 263 0.0 0.0 0.00 0.00 0.00 73 1017.2
20260904155839 88 282 0.0 0.0 0.00 0.00 0.00 73 1017.3
20260904155334 88 277 0.0 0.0 0.00 0.00 0.00 74 1017.1
20260904154832 87 7 0.0 0.0 0.00 0.00 0.00 76 1017.1
20260904154327 87 260 0.0 0.0 0.00 0.00 0.00 73 1017.3
20260904153823 87 1 0.0 0.0 0.00 0.00 0.00 76 1017.4
20260904153318 87 256 0.0 0.0 0.00 0.00 0.00 77 1017.2
20260904152815 86 22 0.0 0.0 0.00 0.00 0.00 78 1017.2
20260904152309 86 301 0.0 0.0 0.00 0.00 0.00 78 1017.3
20260904151804 86 256 0.0 0.0 0.00 0.00 0.00 77 1017.4
20260904151303 85 253 0.0 0.0 0.00 0.00 0.00 77 1017.2
20260904150800 85 275 0.0 0.0 0.00 0.00 0.00 78 1017.2
20260904150254 85 154 0.0 0.0 0.00 0.00 0.00 80 1017.2
20260904145752 85 346 0.0 0.0 0.00 0.00 0.00 79 1017.2
20260904145248 84 281 0.0 0.0 0.00 0.00 0.00 81 1017.3
20260904144743 84 277 0.0 0.0 0.00 0.00 0.00 81 1017.0
20260904144239 83 219 0.0 0.0 0.00 0.00 0.00 83 1017.4
20260904143734 83 152 0.0 0.0 0.00 0.00 0.00 83 1017.1
20260904143232 83 156 0.0 0.0 0.00 0.00 0.00 85 1017.3
20260904142727 82 158 0.0 0.0 0.00 0.00 0.00 84 1017.3
20260904142223 82 162 0.0 0.0 0.00 0.00 0.00 84 1017.4
20260904141723 82 219 0.0 0.0 0.00 0.00 0.00 84 1017.1
20260904141219 81 123 0.0 0.0 0.00 0.00 0.00 86 1017.3
20260904140714 81 225 0.0 0.0 0.00 0.00 0.00 86 1017.4
20260904140209 80 139 0.0 0.0 0.00 0.00 0.00 88 1017.5
20260904135708 80 138 0.0 0.0 0.00 0.00 0.00 88 1017.4
20260904135203 79 138 0.0 0.0 0.00 0.00 0.00 89 1017.5
20260904134659 79 51 0.0 0.0 0.00 0.00 0.00 90 1017.7
20260904134158 78 50 0.0 0.0 0.00 0.00 0.00 91 1017.6
20260904133653 77 50 0.0 0.0 0.00 0.00 0.00 93 1017.7
20260904133150 77 50 0.0 0.0 0.00 0.00 0.00 93 1017.8
20260904132649 76 50 0.0 0.0 0.00 0.00 0.00 94 1017.7
20260904132144 76 50 0.0 0.0 0.00 0.00 0.00 93 1017.8
20260904131643 76 50 0.0 0.0 0.00 0.00 0.00 93 1017.6
20260904131139 75 49 0.0 0.0 0.00 0.00 0.00 94 1017.9
20260904130638 75 51 0.0 0.0 0.00 0.00 0.00 95 1017.9
20260904130133 75 32 0.0 0.0 0.00 0.00 0.00 95 1018.0
20260904125629 74 204 0.0 0.0 0.00 0.00 0.00 96 1017.8
20260904125124 74 205 0.0 0.0 0.00 0.00 0.00 96 1017.8
20260904124619 73 205 0.0 0.0 0.00 0.00 0.00 97 1017.8
20260904124115 73 205 0.0 0.0 0.00 0.00 0.00 97 1017.7
20260904123615 73 206 0.0 0.0 0.00 0.00 0.00 98 1017.9
20260904123110 72 206 0.0 0.0 0.00 0.00 0.00 99 1017.7
20260904122606 71 206 0.0 0.0 0.00 0.00 0.00 99 1017.9
20260904122100 71 206 0.0 0.0 0.00 0.00 0.00 99 1017.8
20260904121555 71 206 0.0 0.0 0.00 0.00 0.00 99 1018.0
20260904121051 70 206 0.0 0.0 0.00 0.00 0.00 99 1017.9
20260904120547 70 206 0.0 0.0 0.00 0.00 0.00 99 1017.9
20260904120043 70 206 0.0 0.0 0.00 0.00 0.00 99 1017.9
20260904115538 69 206 0.0 0.0 0.00 0.00 0.00 99 1018.0
20260904115032 69 206 0.0 0.0 0.00 0.00 0.00 99 1018.1
20260904114527 69 206 0.0 0.0 0.00 0.00 0.00 99 1018.0
20260904114022 69 206 0.0 0.0 0.00 0.00 0.00 99 1017.8
20260904113521 69 206 0.0 0.0 0.00 0.00 0.00 99 1018.0
20260904113016 69 206 0.0 0.0 0.00 0.00 0.00 99 1017.7
20260904112511 69 206 0.0 0.0 0.00 0.00 0.00 99 1017.9
20260904112007 69 102 0.0 0.0 0.00 0.00 0.00 99 1018.0
20260904111503 69 103 0.0 0.0 0.00 0.00 0.00 99 1017.8
20260904110958 69 102 0.0 0.0 0.00 0.00 0.00 99 1017.8
20260904110457 68 102 0.0 0.0 0.00 0.00 0.00 99 1017.8
20260904105952 69 47 0.0 0.0 0.00 0.00 0.00 99 1017.7
20260904105447 68 140 0.0 0.0 0.00 0.00 0.00 99 1017.5
20260904104942 68 140 0.0 0.0 0.00 0.00 0.00 99 1017.1
20260904104442 68 140 0.0 0.0 0.00 0.00 0.00 99 1017.3
20260904103933 68 140 0.0 0.0 0.00 0.00 0.00 99 1017.1
20260904103428 68 140 0.0 0.0 0.00 0.00 0.00 99 1017.3
20260904102924 68 140 0.0 0.0 0.00 0.00 0.00 99 1017.2
20260904102420 69 139 0.0 0.0 0.00 0.00 0.00 99 1017.2
20260904101915 69 139 0.0 0.0 0.00 0.00 0.00 99 1017.1
20260904101412 68 140 0.0 0.0 0.00 0.00 0.00 99 1017.2
20260904100907 68 140 0.0 0.0 0.00 0.00 0.00 99 1016.9
20260904100402 68 140 0.0 0.0 0.00 0.00 0.00 99 1016.9
20260904095857 68 140 0.0 0.0 0.00 0.00 0.00 99 1016.8
20260904095352 68 140 0.0 0.0 0.00 0.00 0.00 99 1016.7
20260904094847 68 140 0.0 0.0 0.00 0.00 0.00 99 1016.5
20260904094342 68 140 0.0 0.0 0.00 0.00 0.00 99 1016.8
20260904093838 69 140 0.0 0.0 0.00 0.00 0.00 99 1016.8
20260904093338 69 140 0.0 0.0 0.00 0.00 0.00 99 1016.8
20260904092833 69 140 0.0 0.0 0.00 0.00 0.00 99 1016.6
20260904092330 69 140 0.0 0.0 0.00 0.00 0.00 99 1016.4
20260904091826 69 140 0.0 0.0 0.00 0.00 0.00 99 1016.5
20260904091321 68 140 0.0 0.0 0.00 0.00 0.00 99 1016.6
20260904090816 69 140 0.0 0.0 0.00 0.00 0.00 99 1016.5
20260904090312 69 140 0.0 0.0 0.00 0.00 0.00 99 1016.6
20260904085807 69 140 0.0 0.0 0.00 0.00 0.00 99 1016.8
20260904085305 69 140 0.0 0.0 0.00 0.00 0.00 99 1016.7
20260904084756 69 140 0.0 0.0 0.00 0.00 0.00 99 1016.7
20260904084252 69 140 0.0 0.0 0.00 0.00 0.00 99 1016.8
20260904083748 69 140 0.0 0.0 0.00 0.00 0.00 99 1016.8
20260904083244 69 140 0.0 0.0 0.00 0.00 0.00 99 1016.4
20260904082739 69 140 0.0 0.0 0.00 0.00 0.00 99 1016.5
20260904082234 69 140 0.0 0.0 0.00 0.00 0.00 99 1016.5
20260904081729 69 140 0.0 0.0 0.00 0.00 0.00 99 1016.5
20260904081225 69 140 0.0 0.0 0.00 0.00 0.00 99 1016.3
20260904080721 69 140 0.0 0.0 0.00 0.00 0.00 99 1016.5
20260904080216 69 140 0.0 0.0 0.00 0.00 0.00 99 1016.5
20260904075712 69 140 0.0 0.0 0.00 0.00 0.00 99 1016.5
20260904075206 69 140 0.0 0.0 0.00 0.00 0.00 99 1016.4
20260904074700 70 140 0.0 0.0 0.00 0.00 0.00 99 1016.5
20260904074154 70 140 0.0 0.0 0.00 0.00 0.00 99 1016.3
20260904073650 70 140 0.0 0.0 0.00 0.00 0.00 99 1016.4
20260904073146 70 140 0.0 0.0 0.00 0.00 0.00 99 1016.4
20260904072641 70 140 0.0 0.0 0.00 0.00 0.00 99 1016.4
20260904072136 70 140 0.0 0.0 0.00 0.00 0.00 99 1016.3
20260904071626 70 140 0.0 0.0 0.00 0.00 0.00 99 1016.3
20260904071120 70 140 0.0 0.0 0.00 0.00 0.00 99 1016.5
20260904070614 70 140 0.0 0.0 0.00 0.00 0.00 99 1016.4
20260904070109 70 140 0.0 0.0 0.00 0.00 0.00 99 1016.4
20260904065604 70 140 0.0 0.0 0.00 0.00 0.00 99 1016.4
20260904065101 70 140 0.0 0.0 0.00 0.00 0.00 99 1016.3
20260904064556 70 140 0.0 0.0 0.00 0.00 0.00 99 1016.5
20260904064056 70 140 0.0 0.0 0.00 0.00 0.00 99 1016.5
20260904063552 70 140 0.0 0.0 0.00 0.00 0.00 99 1016.4
20260904063047 71 139 0.0 0.0 0.00 0.00 0.00 99 1016.5
20260904062544 71 139 0.0 0.0 0.00 0.00 0.00 99 1016.7
20260904062044 71 140 0.0 0.0 0.00 0.00 0.00 99 1016.5
20260904061540 71 140 0.0 0.0 0.00 0.00 0.00 99 1016.7
20260904061036 71 140 0.0 0.0 0.00 0.00 0.00 99 1016.8
20260904060532 71 88 0.0 0.0 0.00 0.00 0.00 98 1016.8
20260904060028 71 88 0.0 0.0 0.00 0.00 0.00 98 1016.8
20260904055523 71 88 0.0 0.0 0.00 0.00 0.00 98 1016.9
20260904055018 71 88 0.0 0.0 0.00 0.00 0.00 98 1016.9
20260904054514 71 88 0.0 0.0 0.00 0.00 0.00 98 1017.1
20260904054010 71 87 0.0 0.0 0.00 0.00 0.00 98 1017.0
20260904053509 72 87 0.0 0.0 0.00 0.00 0.00 97 1017.2
20260904053004 72 87 0.0 0.0 0.00 0.00 0.00 97 1017.1
20260904052501 72 87 0.0 0.0 0.00 0.00 0.00 97 1017.2
20260904051956 72 88 0.0 0.0 0.00 0.00 0.00 97 1017.2
20260904051453 72 87 0.0 0.0 0.00 0.00 0.00 97 1017.2
20260904050952 72 88 0.0 0.0 0.00 0.00 0.00 97 1017.5
20260904050448 72 87 0.0 0.0 0.00 0.00 0.00 97 1017.2
20260904045943 73 87 0.0 0.0 0.00 0.00 0.00 96 1017.4
20260904045438 73 87 0.0 0.0 0.00 0.00 0.00 95 1017.5
20260904044933 73 82 0.0 0.0 0.00 0.00 0.00 95 1017.3
20260904044429 73 29 0.0 0.0 0.00 0.00 0.00 95 1017.6
20260904043925 74 27 0.0 0.0 0.00 0.00 0.00 94 1017.7
20260904043422 74 27 0.0 0.0 0.00 0.00 0.00 94 1017.9
20260904042917 74 27 0.0 0.0 0.00 0.00 0.00 92 1017.9
20260904042412 75 27 0.0 0.0 0.00 0.00 0.00 91 1017.7
20260904041907 75 27 0.0 0.0 0.00 0.00 0.00 90 1017.6
20260904041358 76 27 0.0 0.0 0.00 0.00 0.00 89 1017.6
20260904040854 76 27 0.0 0.0 0.00 0.00 0.00 88 1017.6
20260904040348 76 26 0.0 0.0 0.00 0.00 0.00 87 1017.6
20260904035845 76 26 0.0 0.0 0.00 0.00 0.00 87 1017.5
20260904035341 77 26 0.0 0.0 0.00 0.00 0.00 86 1017.6
20260904034839 77 26 0.0 0.0 0.00 0.00 0.00 85 1017.7
20260904034335 77 46 0.0 0.0 0.00 0.00 0.00 85 1017.4
20260904033831 78 89 0.0 0.0 0.00 0.00 0.00 85 1017.5
20260904033327 78 48 0.0 0.0 0.00 0.00 0.00 86 1017.4
20260904032823 79 348 0.0 0.0 0.00 0.00 0.00 85 1017.3
20260904032322 79 18 0.0 0.0 0.00 0.00 0.00 85 1017.4
20260904031817 79 356 0.0 0.0 0.00 0.00 0.00 89 1017.3
20260904031313 80 334 0.0 0.0 0.00 0.00 0.00 89 1017.1
20260904030808 80 21 0.0 0.0 0.00 0.00 0.00 87 1017.3
20260904030304 80 33 0.0 0.0 0.00 0.00 0.00 91 1017.3
20260904025800 77 318 0.0 0.0 0.00 0.00 0.00 98 1017.0
20260904025255 76 229 0.0 0.0 0.00 0.00 0.00 99 1017.3
20260904024749 76 229 0.0 0.0 0.00 0.00 0.00 99 1017.1
20260904024245 76 229 0.0 0.0 0.00 0.00 0.00 99 1017.0
20260904023741 76 229 0.0 0.0 0.00 0.00 0.00 99 1016.8
20260904023237 76 229 0.0 0.0 0.00 0.00 0.00 99 1016.9
20260904022736 77 229 0.0 0.0 0.00 0.00 0.00 99 1016.9
20260904022233 76 229 0.0 0.0 0.00 0.00 0.00 99 1017.0
20260904021729 76 229 0.0 0.0 0.00 0.00 0.00 99 1017.0
20260904021229 77 229 0.0 0.0 0.00 0.00 0.00 99 1016.9
20260904020725 77 229 0.0 0.0 0.00 0.00 0.00 99 1016.7